Location: Hilton Head Island
(32.2163°N, 80.7526°W)
Time: 03:42:20
(UTC-04:00)

Transit 2A Rocket - Pass Details

Date: 07 February 2026
Orbit: 583 x 900 km, 66.7° (Epoch: 8 March)

Event Time Altitude Azimuth Distance (km) Brightness Sun altitude
Rises 04:02:20 0° 338° (NNW) 3,352 - -40.6°
Reaches altitude 10° 04:04:56 10° 343° (NNW) 2,369 - -40.0°
Maximum altitude 04:10:15 56° 61° (ENE) 882 - -38.9°
Drops below altitude 10° 04:15:04 10° 140° (SE) 2,147 - -37.9°
Exits shadow 04:15:45 - 142° (SE) 2,404 7.9 -37.8°
Sets 04:17:19 0° 144° (SE) 3,011 8.4 -37.4°
